Weather History for Middlesboro, KY

Change the Weather History Date:

Monday, November 19, 2012

  Actual Average (KLOZ) Record (KLOZ)
Temperature  
Mean Temperature 47 °F 46 °F  
Max Temperature 66 °F 57 °F 77 °F (1985)
Min Temperature 28 °F 36 °F 18 °F (2008)
Degree Days  
Heating Degree Days 18 19  
Month to date heating degree days 298  
Since 1 July heating degree days 604  
Cooling Degree Days 0 0  
Month to date cooling degree days 0  
Year to date cooling degree days 1188  
Moisture  
Dew Point 36 °F    
Average Humidity 77    
Maximum Humidity 100    
Minimum Humidity 42    
Precipitation  
Precipitation 0.00 in 0.14 in 1.26 in (1964)
Month to date precipitation 2.28  
Year to date precipitation 41.35  
Sea Level Pressure  
Sea Level Pressure 30.29 in    
Wind  
Wind Speed 0 mph (WNW)    
Max Wind Speed 5 mph    
Max Gust Speed -    
Visibility 9 miles    
Events      
T = Trace of Precipitation, MM = Missing Value Source: NWS Daily Summary

Daily Weather History Graph

Daily Weather History Graph

Search for Another Location

Airport:

Trip Planner

Search our weather history database for the weather conditions in past years. The results will help you decide how hot, cold, wet, or windy it might be!

Date:

Astronomy

Nov. 19, 2012 Rise Set
Actual Time 6:17 AM CST 4:23 PM CST
Civil Twilight 5:49 AM CST 4:51 PM CST
Nautical Twilight 5:18 AM CST 5:22 PM CST
Astronomical Twilight 4:47 AM CST 5:53 PM CST
Moon 11:23 AM CST (11/19) 10:45 PM CST (11/19)
Length of Visible Light 11h 01m
Length of Day
10h 06m
Waxing Crescent, 41% of the Moon is Illuminated
Nov 19
Waxing Crescent
Nov 20
First Quarter
Nov 28
Full
Dec 6
Last Quarter
Dec 13
New

Hourly Weather History & Observations

Time (CST) Temp. Dew Point Humidity Pressure Visibility Wind Dir Wind Speed Gust Speed Precip Events Conditions
12:15 AM 32.0 °F 30.2 °F 93% 30.37 in 10.0 mi Calm Calm - N/A   Clear
12:35 AM 33.8 °F 32.0 °F 93% 30.36 in 10.0 mi Calm Calm - N/A   Clear
12:55 AM 32.0 °F 30.2 °F 93% 30.36 in 10.0 mi Calm Calm - N/A   Clear
1:15 AM 32.0 °F 30.2 °F 93% 30.37 in 10.0 mi Calm Calm - N/A   Clear
1:35 AM 32.0 °F 30.2 °F 93% 30.36 in 10.0 mi Calm Calm - N/A   Clear
1:55 AM 30.2 °F 30.2 °F 100% 30.36 in 10.0 mi Calm Calm - N/A   Clear
2:15 AM 32.0 °F 30.2 °F 93% 30.36 in 10.0 mi Calm Calm - N/A   Clear
2:35 AM 30.2 °F 30.2 °F 100% 30.36 in 10.0 mi Calm Calm - N/A   Clear
2:55 AM 30.2 °F 30.2 °F 100% 30.35 in 10.0 mi Calm Calm - N/A   Clear
3:15 AM 30.2 °F 30.2 °F 100% 30.35 in 10.0 mi Calm Calm - N/A   Clear
3:35 AM 30.2 °F 30.2 °F 100% 30.35 in 10.0 mi Calm Calm - N/A   Clear
3:55 AM 30.2 °F 28.4 °F 93% 30.35 in 10.0 mi Calm Calm - N/A   Clear
4:15 AM 30.2 °F 28.4 °F 93% 30.35 in 7.0 mi Calm Calm - N/A   Clear
4:35 AM 30.2 °F 28.4 °F 93% 30.35 in 7.0 mi Calm Calm - N/A   Clear
4:55 AM 30.2 °F 28.4 °F 93% 30.36 in 10.0 mi Calm Calm - N/A   Clear
5:15 AM 30.2 °F 28.4 °F 93% 30.36 in 10.0 mi Calm Calm - N/A   Clear
5:35 AM 28.4 °F 28.4 °F 100% 30.36 in 10.0 mi Calm Calm - N/A   Clear
6:15 AM 28.4 °F 28.4 °F 100% 30.36 in 10.0 mi Calm Calm - N/A   Clear
6:35 AM 28.4 °F 28.4 °F 100% 30.37 in 10.0 mi Calm Calm - N/A   Clear
6:55 AM 28.4 °F 28.4 °F 100% 30.37 in 5.0 mi Calm Calm - N/A   Clear
7:35 AM 30.2 °F 30.2 °F 100% 30.37 in 5.0 mi Calm Calm - N/A   Clear
7:55 AM 33.8 °F 32.0 °F 93% 30.37 in 1.8 mi Calm Calm - N/A   Mist
8:15 AM 37.4 °F 35.6 °F 93% 30.36 in 3.0 mi Calm Calm - N/A   Clear
8:35 AM 39.2 °F 35.6 °F 87% 30.36 in 4.0 mi Calm Calm - N/A   Clear
8:55 AM 42.8 °F 37.4 °F 81% 30.36 in 5.0 mi Calm Calm - N/A   Haze
9:15 AM 44.6 °F 39.2 °F 81% 30.36 in 7.0 mi Calm Calm - N/A   Clear
9:35 AM 46.4 °F 39.2 °F 76% 30.35 in 7.0 mi Calm Calm - N/A   Clear
9:55 AM 50.0 °F 39.2 °F 66% 30.34 in 10.0 mi Calm Calm - N/A   Clear
10:15 AM 51.8 °F 41.0 °F 67% 30.33 in 10.0 mi Calm Calm - N/A   Clear
10:35 AM 55.4 °F 41.0 °F 58% 30.32 in 10.0 mi Calm Calm - N/A   Clear
10:55 AM 59.0 °F 42.8 °F 55% 30.31 in 10.0 mi Calm Calm - N/A   Clear
11:15 AM 60.8 °F 42.8 °F 52% 30.30 in 10.0 mi Calm Calm - N/A   Clear
11:35 AM 60.8 °F 42.8 °F 52% 30.28 in 10.0 mi Calm Calm - N/A   Clear
11:55 AM 62.6 °F 42.8 °F 48% 30.28 in 10.0 mi Calm Calm - N/A   Clear
12:15 PM 62.6 °F 42.8 °F 48% 30.26 in 10.0 mi Calm Calm - N/A   Clear
12:35 PM 64.4 °F 42.8 °F 45% 30.25 in 10.0 mi Calm Calm - N/A   Clear
12:55 PM 64.4 °F 42.8 °F 45% 30.25 in 10.0 mi Calm Calm - N/A   Clear
1:15 PM 64.4 °F 41.0 °F 42% 30.24 in 10.0 mi Calm Calm - N/A   Scattered Clouds
1:35 PM 64.4 °F 41.0 °F 42% 30.24 in 10.0 mi Calm Calm - N/A   Clear
1:55 PM 66.2 °F 42.8 °F 43% 30.23 in 10.0 mi Calm Calm - N/A   Clear
2:15 PM 66.2 °F 42.8 °F 43% 30.22 in 10.0 mi Calm Calm - N/A   Clear
2:35 PM 64.4 °F 41.0 °F 42% 30.22 in 10.0 mi Calm Calm - N/A   Clear
2:55 PM 64.4 °F 41.0 °F 42% 30.22 in 10.0 mi Calm Calm - N/A   Scattered Clouds
3:15 PM 64.4 °F 41.0 °F 42% 30.22 in 10.0 mi NNW 3.5 mph - N/A   Clear
3:55 PM 62.6 °F 39.2 °F 42% 30.22 in 10.0 mi Calm Calm - N/A   Clear
4:15 PM 60.8 °F 39.2 °F 45% 30.22 in 10.0 mi Calm Calm - N/A   Clear
4:35 PM 55.4 °F 41.0 °F 58% 30.22 in 4.0 mi Calm Calm - N/A   Haze
4:55 PM 53.6 °F 39.2 °F 58% 30.22 in 10.0 mi Calm Calm - N/A   Clear
5:15 PM 51.8 °F 37.4 °F 58% 30.22 in 10.0 mi Calm Calm - N/A   Clear
5:35 PM 51.8 °F 37.4 °F 58% 30.22 in 10.0 mi West 4.6 mph - N/A   Clear
5:55 PM 50.0 °F 37.4 °F 62% 30.22 in 10.0 mi Calm Calm - N/A   Clear
6:15 PM 46.4 °F 37.4 °F 71% 30.22 in 10.0 mi Calm Calm - N/A   Clear
6:35 PM 44.6 °F 37.4 °F 76% 30.22 in 10.0 mi Calm Calm - N/A   Clear
6:55 PM 42.8 °F 35.6 °F 76% 30.22 in 10.0 mi Calm Calm - N/A   Clear
7:15 PM 42.8 °F 37.4 °F 81% 30.22 in 10.0 mi Calm Calm - N/A   Clear
7:35 PM 39.2 °F 35.6 °F 87% 30.23 in 10.0 mi Calm Calm - N/A   Clear
7:55 PM 39.2 °F 35.6 °F 87% 30.22 in 10.0 mi Calm Calm - N/A   Clear
8:15 PM 39.2 °F 35.6 °F 87% 30.22 in 10.0 mi Calm Calm - N/A   Clear
8:35 PM 39.2 °F 35.6 °F 87% 30.23 in 10.0 mi Calm Calm - N/A   Clear
9:15 PM 39.2 °F 35.6 °F 87% 30.22 in 10.0 mi Calm Calm - N/A   Clear
9:35 PM 39.2 °F 35.6 °F 87% 30.22 in 10.0 mi Calm Calm - N/A   Clear
9:55 PM 37.4 °F 35.6 °F 93% 30.22 in 10.0 mi Calm Calm - N/A   Clear
10:15 PM 37.4 °F 35.6 °F 93% 30.21 in 10.0 mi Calm Calm - N/A   Clear
10:35 PM 37.4 °F 35.6 °F 93% 30.22 in 10.0 mi Calm Calm - N/A   Clear
10:55 PM 37.4 °F 35.6 °F 93% 30.21 in 10.0 mi Calm Calm - N/A   Clear
11:15 PM 35.6 °F 35.6 °F 100% 30.22 in 10.0 mi Calm Calm - N/A   Clear
11:35 PM 37.4 °F 35.6 °F 93% 30.21 in 10.0 mi Calm Calm - N/A   Clear
11:55 PM 37.4 °F 35.6 °F 93% 30.20 in 10.0 mi Calm Calm - N/A   Clear